GW1125 Weather Reports


Display with metric or nautical units.
time (UTC)temp
F
wind
direction
speed
MPH
gust
MPH
rain 1hr
in
rain 24hr
in
rain mn
in
humidity
%
barometer
mb
20260510205118 61 52 2.0 4.0 0.00 0.00 0.00 71 1018.6
20260510204617 62 72 1.0 2.0 0.00 0.00 0.00 67 1018.7
20260510204117 63 193 1.0 2.0 0.00 0.00 0.00 66 1018.5
20260510203617 63 110 0.0 1.0 0.00 0.00 0.00 69 1018.4
20260510203117 62 112 0.0 2.0 0.00 0.00 0.00 70 1018.4
20260510202616 62 105 0.0 1.0 0.00 0.00 0.00 71 1018.3
20260510202118 62 92 0.0 1.0 0.00 0.00 0.00 70 1018.3
20260510201617 61 113 0.0 1.0 0.00 0.00 0.00 69 1018.3
20260510201137 61 0.0 0.0 0.00 0.00 0.00 70 1018.4
20260510200617 61 123 1.0 3.0 0.00 0.00 0.00 70 1018.2
20260510200117 60 85 0.0 1.0 0.00 0.00 0.00 74 1018.4
20260510195617 60 0.0 0.0 0.00 0.00 0.00 75 1018.3
20260510195117 60 0.0 0.0 0.00 0.00 0.00 74 1018.2
20260510194617 59 115 0.0 1.0 0.00 0.00 0.00 75 1018.2
20260510194117 59 0.0 0.0 0.00 0.00 0.00 75 1018.1
20260510193637 60 123 1.0 2.0 0.00 0.00 0.00 74 1018.2
20260510193118 60 0.0 0.0 0.00 0.00 0.00 74 1018.1
20260510192618 59 0.0 0.0 0.00 0.00 0.00 76 1018.1
20260510192117 59 100 0.0 1.0 0.00 0.00 0.00 75 1018.3
20260510191617 59 112 0.0 2.0 0.00 0.00 0.00 77 1018.4
20260510191117 59 0.0 0.0 0.00 0.00 0.00 78 1018.5
20260510190637 59 0.0 0.0 0.00 0.00 0.00 77 1018.2
20260510190117 59 0.0 0.0 0.00 0.00 0.00 78 1018.1
20260510185617 58 96 0.0 1.0 0.00 0.00 0.00 80 1018.2
20260510185118 57 0.0 0.0 0.00 0.00 0.00 82 1018.3
20260510184618 57 0.0 0.0 0.00 0.00 0.00 82 1018.4
20260510184117 56 110 0.0 1.0 0.00 0.00 0.00 83 1018.4
20260510183617 57 144 0.0 2.0 0.00 0.00 0.00 83 1018.4
20260510183117 57 0.0 0.0 0.00 0.00 0.00 82 1018.2
20260510182617 57 0.0 0.0 0.00 0.00 0.00 82 1018.0
20260510182117 57 0.0 0.0 0.00 0.00 0.00 83 1018.1
20260510181637 57 0.0 0.0 0.00 0.00 0.00 82 1018.1
20260510181116 57 0.0 0.0 0.00 0.00 0.00 81 1018.2
20260510180617 57 0.0 0.0 0.00 0.00 0.00 83 1018.0
20260510180117 57 0.0 0.0 0.00 0.00 0.00 83 1017.9
20260510175617 57 0.0 0.0 0.00 0.00 0.00 84 1017.7
20260510175137 56 0.0 0.0 0.00 0.00 0.00 85 1017.5
20260510174617 56 0.0 0.0 0.00 0.00 0.00 86 1017.8
20260510174117 56 75 1.0 3.0 0.00 0.00 0.00 86 1018.0
20260510173617 56 159 0.0 2.0 0.00 0.00 0.00 86 1018.2
20260510173117 56 0.0 0.0 0.00 0.00 0.00 87 1018.0
20260510172617 55 0.0 0.0 0.00 0.00 0.00 89 1017.8
20260510172118 54 0.0 0.0 0.00 0.00 0.00 89 1017.9
20260510171617 54 0.0 0.0 0.00 0.00 0.00 89 1017.8
20260510171118 55 0.0 0.0 0.00 0.00 0.00 89 1017.9
20260510170617 55 0.0 0.0 0.00 0.00 0.00 89 1017.9
20260510170117 55 0.0 0.0 0.00 0.00 0.00 88 1017.7
20260510165638 55 0.0 0.0 0.00 0.00 0.00 88 1017.8
20260510165137 55 124 1.0 2.0 0.00 0.00 0.00 88 1017.7
20260510164617 55 109 0.0 1.0 0.00 0.00 0.00 87 1017.5
20260510164157 56 110 1.0 1.0 0.00 0.00 0.00 87 1017.4
20260510163618 55 0.0 0.0 0.00 0.00 0.00 89 1017.3
20260510163118 55 0.0 0.0 0.00 0.00 0.00 90 1017.3
20260510162617 54 0.0 0.0 0.00 0.00 0.00 90 1017.2
20260510162137 54 0.0 0.0 0.00 0.00 0.00 90 1017.3
20260510161617 54 0.0 0.0 0.00 0.00 0.00 90 1017.3
20260510161117 54 0.0 0.0 0.00 0.00 0.00 90 1017.3
20260510160617 55 84 0.0 1.0 0.00 0.00 0.00 89 1017.4
20260510160137 54 0.0 0.0 0.00 0.00 0.00 90 1017.2
20260510155617 54 0.0 0.0 0.00 0.00 0.00 90 1017.1
20260510155117 54 0.0 0.0 0.00 0.00 0.00 91 1016.9
20260510154617 54 82 0.0 1.0 0.00 0.00 0.00 90 1016.7
20260510154137 54 0.0 0.0 0.00 0.00 0.00 91 1016.6
20260510153638 54 0.0 0.0 0.00 0.00 0.00 91 1017.2
20260510153117 54 89 0.0 1.0 0.00 0.00 0.00 91 1017.1
20260510152657 54 0.0 0.0 0.00 0.00 0.00 92 1016.9
20260510152117 53 0.0 0.0 0.00 0.00 0.00 92 1017.0
20260510151617 53 0.0 0.0 0.00 0.00 0.00 92 1016.8
20260510151117 53 0.0 0.0 0.00 0.00 0.00 92 1016.5
20260510150616 54 155 1.0 2.0 0.00 0.00 0.00 92 1016.8
20260510150117 53 0.0 0.0 0.00 0.00 0.00 93 1017.1
20260510145617 52 0.0 0.0 0.00 0.00 0.00 94 1017.0
20260510145137 52 0.0 0.0 0.00 0.00 0.00 95 1016.6
20260510144617 51 0.0 0.0 0.00 0.00 0.00 95 1016.5
20260510144117 51 0.0 0.0 0.00 0.00 0.00 95 1017.0
20260510143637 51 0.0 0.0 0.00 0.00 0.00 95 1017.2
20260510143137 51 0.0 0.0 0.00 0.00 0.00 96 1017.3
20260510142657 51 0.0 0.0 0.00 0.00 0.00 96 1017.3
20260510142116 51 0.0 0.0 0.00 0.00 0.00 97 1017.2
20260510141617 50 0.0 0.0 0.00 0.00 0.00 97 1016.8
20260510141118 50 0.0 0.0 0.00 0.00 0.00 97 1016.6
20260510140637 50 0.0 0.0 0.00 0.00 0.00 97 1016.5
20260510140117 50 0.0 0.0 0.00 0.00 0.00 98 1016.4
20260510135617 50 0.0 0.0 0.00 0.00 0.00 98 1016.0
20260510135118 50 0.0 0.0 0.00 0.00 0.00 99 1016.0
20260510134617 49 0.0 0.0 0.00 0.00 0.00 99 1016.4
20260510134117 49 0.0 0.0 0.00 0.00 0.00 99 1016.4
20260510133617 49 0.0 0.0 0.00 0.00 0.00 99 1016.4
20260510133117 48 0.0 0.0 0.00 0.00 0.00 99 1016.7
20260510132638 48 0.0 0.0 0.00 0.00 0.00 99 1016.9
20260510132137 48 0.0 0.0 0.00 0.00 0.00 99 1017.1
20260510131618 48 0.0 0.0 0.00 0.00 0.00 99 1017.1
20260510131117 48 0.0 0.0 0.00 0.00 0.00 99 1017.0
20260510130617 47 0.0 0.0 0.00 0.00 0.00 99 1017.1
20260510130117 47 0.0 0.0 0.00 0.00 0.00 98 1017.0
20260510125617 47 0.0 0.0 0.00 0.00 0.00 98 1017.0
20260510125116 47 0.0 0.0 0.00 0.00 0.00 98 1017.1
20260510124618 47 0.0 0.0 0.00 0.00 0.00 98 1017.2
20260510124137 47 0.0 0.0 0.00 0.00 0.00 98 1017.0
20260510123617 47 0.0 0.0 0.00 0.00 0.00 98 1016.9
20260510123117 47 0.0 0.0 0.00 0.00 0.00 98 1017.1
20260510122617 47 0.0 0.0 0.00 0.00 0.00 98 1017.0
20260510122117 48 0.0 0.0 0.00 0.00 0.00 98 1016.9
20260510121617 48 0.0 0.0 0.00 0.00 0.00 98 1016.7
20260510121117 48 0.0 0.0 0.00 0.00 0.00 98 1016.8
20260510120616 48 0.0 0.0 0.00 0.00 0.00 98 1016.8
20260510120118 48 0.0 0.0 0.00 0.00 0.00 98 1016.6
20260510115617 48 0.0 0.0 0.00 0.00 0.00 98 1016.6
20260510115118 48 0.0 0.0 0.00 0.00 0.00 98 1016.5
20260510114618 48 0.0 0.0 0.00 0.00 0.00 97 1016.4
20260510114117 49 0.0 0.0 0.00 0.00 0.00 97 1016.6
20260510113617 49 0.0 0.0 0.00 0.00 0.00 97 1016.6
20260510113117 49 0.0 0.0 0.00 0.00 0.00 97 1016.6
20260510112617 49 0.0 0.0 0.00 0.00 0.00 97 1016.8
20260510112117 49 0.0 0.0 0.00 0.00 0.00 97 1016.7
20260510111618 49 0.0 0.0 0.00 0.00 0.00 97 1016.8
20260510111217 49 0.0 0.0 0.00 0.00 0.00 97 1016.7
20260510110637 49 0.0 0.0 0.00 0.00 0.00 97 1016.6
20260510110117 49 0.0 0.0 0.00 0.00 0.00 97 1016.4
20260510105617 49 0.0 0.0 0.00 0.00 0.00 97 1016.4
20260510105117 49 0.0 0.0 0.00 0.00 0.00 97 1016.3
20260510104617 49 0.0 0.0 0.00 0.00 0.00 97 1016.3
20260510104117 49 0.0 0.0 0.00 0.00 0.00 97 1016.3
20260510103616 49 0.0 0.0 0.00 0.00 0.00 96 1016.2
20260510103118 49 0.0 0.0 0.00 0.00 0.00 96 1016.2
20260510102617 50 0.0 0.0 0.00 0.00 0.00 96 1016.2
20260510102118 50 0.0 0.0 0.00 0.00 0.00 96 1015.9
20260510101617 50 0.0 0.0 0.00 0.00 0.00 96 1016.1
20260510101117 50 0.0 0.0 0.00 0.00 0.00 96 1016.0
20260510100617 50 0.0 0.0 0.00 0.00 0.00 97 1016.1
20260510100117 50 0.0 0.0 0.00 0.00 0.00 96 1015.8
20260510095617 49 0.0 0.0 0.00 0.00 0.00 96 1015.8
20260510095117 49 0.0 0.0 0.00 0.00 0.00 96 1015.7
20260510094617 49 0.0 0.0 0.00 0.00 0.00 96 1015.7
20260510094118 50 0.0 0.0 0.00 0.00 0.00 96 1015.8
20260510093638 49 0.0 0.0 0.00 0.00 0.00 96 1015.6
20260510093137 50 0.0 0.0 0.00 0.00 0.00 95 1015.7
20260510092617 50 0.0 0.0 0.00 0.00 0.00 95 1015.2
20260510092117 50 0.0 0.0 0.00 0.00 0.00 95 1015.5
20260510091617 50 0.0 0.0 0.00 0.00 0.00 95 1015.4
20260510091117 50 0.0 0.0 0.00 0.00 0.00 95 1015.4
20260510090617 50 0.0 0.0 0.00 0.00 0.00 95 1015.5
20260510090116 50 0.0 0.0 0.00 0.00 0.00 95 1015.4
20260510085617 50 0.0 0.0 0.00 0.00 0.00 95 1015.4
20260510085117 50 0.0 0.0 0.00 0.00 0.00 95 1015.5
20260510084617 50 0.0 0.0 0.00 0.00 0.00 95 1015.4
20260510084117 51 0.0 0.0 0.00 0.00 0.00 95 1015.3
20260510083617 51 0.0 0.0 0.00 0.00 0.00 94 1015.2
20260510083117 51 0.0 0.0 0.00 0.00 0.00 94 1015.1
20260510082617 51 0.0 0.0 0.00 0.00 0.00 94 1015.0
20260510082117 51 0.0 0.0 0.00 0.00 0.00 94 1015.0
20260510081617 51 0.0 0.0 0.00 0.00 0.00 94 1015.0
20260510081118 51 0.0 0.0 0.00 0.00 0.00 94 1015.1
20260510080638 51 0.0 0.0 0.00 0.00 0.00 94 1015.2
20260510080117 51 0.0 0.0 0.00 0.00 0.00 93 1015.3
20260510075637 51 0.0 0.0 0.00 0.00 0.00 92 1015.3
20260510075117 52 0.0 0.0 0.00 0.00 0.00 92 1015.2
20260510074617 52 0.0 0.0 0.00 0.00 0.00 92 1015.1
20260510074117 52 0.0 0.0 0.00 0.00 0.00 92 1015.2
20260510073617 52 0.0 0.0 0.00 0.00 0.00 92 1015.2
20260510073117 52 0.0 0.0 0.00 0.00 0.00 92 1015.2
20260510072618 52 0.0 0.0 0.00 0.00 0.00 91 1015.2
20260510072118 53 0.0 0.0 0.00 0.00 0.00 91 1015.3
20260510071617 53 0.0 0.0 0.00 0.00 0.00 89 1015.1
20260510071117 53 0.0 0.0 0.00 0.00 0.00 88 1015.2
20260510070617 54 0.0 0.0 0.00 0.00 0.00 88 1015.4
20260510070117 53 0.0 0.0 0.00 0.00 0.00 88 1015.2
20260510065617 54 0.0 0.0 0.00 0.00 0.00 87 1015.2
20260510065137 54 0.0 0.0 0.00 0.00 0.00 87 1015.3
20260510064617 54 0.0 0.0 0.00 0.00 0.00 87 1015.2
20260510064118 54 0.0 0.0 0.00 0.00 0.00 87 1015.3
20260510063618 54 0.0 0.0 0.00 0.00 0.00 87 1015.3
20260510063117 54 0.0 0.0 0.00 0.00 0.00 87 1015.3
20260510062617 54 0.0 0.0 0.00 0.00 0.00 86 1015.3
20260510062117 55 0.0 0.0 0.00 0.00 0.00 85 1015.3
20260510061617 55 0.0 0.0 0.00 0.00 0.00 84 1015.2
20260510061117 55 0.0 0.0 0.00 0.00 0.00 84 1015.2
20260510060617 55 0.0 0.0 0.00 0.00 0.00 84 1015.2
20260510060117 55 0.0 0.0 0.00 0.00 0.00 83 1015.2
20260510055618 56 0.0 0.0 0.00 0.00 0.00 82 1015.1
20260510055117 56 0.0 0.0 0.00 0.00 0.00 82 1015.3
20260510054617 56 0.0 0.0 0.00 0.00 0.00 82 1015.0
20260510054118 56 0.0 0.0 0.00 0.00 0.00 82 1015.1
20260510053657 56 0.0 0.0 0.00 0.00 0.00 82 1015.0
20260510053117 56 0.0 0.0 0.00 0.00 0.00 82 1015.0
20260510052617 56 0.0 0.0 0.00 0.00 0.00 81 1014.9
20260510052117 56 0.0 0.0 0.00 0.00 0.00 81 1015.0
20260510051637 56 0.0 0.0 0.00 0.00 0.00 81 1015.0
20260510051117 57 0.0 0.0 0.00 0.00 0.00 80 1015.0
20260510050617 57 0.0 0.0 0.00 0.00 0.00 79 1014.8
20260510050117 57 0.0 0.0 0.00 0.00 0.00 79 1015.0
20260510045617 57 0.0 0.0 0.00 0.00 0.00 78 1014.9
20260510045117 58 0.0 0.0 0.00 0.00 0.00 77 1014.9
20260510044617 58 0.0 0.0 0.00 0.00 0.00 77 1014.8
20260510044117 58 0.0 0.0 0.00 0.00 0.00 76 1014.9
20260510043617 58 0.0 0.0 0.00 0.00 0.00 75 1015.0
20260510043117 58 0.0 0.0 0.00 0.00 0.00 74 1014.8
20260510042616 59 0.0 0.0 0.00 0.00 0.00 73 1014.8
20260510042118 59 0.0 0.0 0.00 0.00 0.00 72 1014.6
20260510041617 60 0.0 0.0 0.00 0.00 0.00 71 1014.8
20260510041117 60 0.0 0.0 0.00 0.00 0.00 72 1014.7
20260510040617 60 0.0 0.0 0.00 0.00 0.00 72 1014.7
20260510040117 60 0.0 0.0 0.00 0.00 0.00 72 1014.6
20260510035617 60 0.0 0.0 0.00 0.00 0.00 72 1014.6
20260510035117 60 0.0 0.0 0.00 0.00 0.00 72 1014.5
20260510034657 60 0.0 0.0 0.00 0.00 0.00 70 1014.5
20260510034157 60 0.0 0.0 0.00 0.00 0.00 71 1014.5
20260510033617 61 0.0 0.0 0.00 0.00 0.00 70 1014.4
20260510033117 61 0.0 0.0 0.00 0.00 0.00 68 1014.5
20260510032637 61 0.0 0.0 0.00 0.00 0.00 68 1014.4
20260510032117 62 0.0 0.0 0.00 0.00 0.00 66 1014.6
20260510031617 62 0.0 0.0 0.00 0.00 0.00 66 1014.6
20260510031137 62 0.0 0.0 0.00 0.00 0.00 65 1014.5
20260510030617 63 0.0 0.0 0.00 0.00 0.00 63 1014.6
20260510030117 63 0.0 0.0 0.00 0.00 0.00 62 1014.6
20260510025617 64 0.0 0.0 0.00 0.00 0.00 63 1014.6
20260510025118 64 0.0 0.0 0.00 0.00 0.00 60 1014.7
20260510024637 64 0.0 0.0 0.00 0.00 0.00 59 1014.8
20260510024117 65 86 0.0 1.0 0.00 0.00 0.00 58 1014.8
20260510023617 65 0.0 0.0 0.00 0.00 0.00 58 1014.9
20260510023117 65 0.0 0.0 0.00 0.00 0.00 58 1014.8
20260510022617 66 0.0 0.0 0.00 0.00 0.00 57 1014.9
20260510022117 66 0.0 0.0 0.00 0.00 0.00 58 1014.7
20260510021617 66 0.0 0.0 0.00 0.00 0.00 56 1014.9
20260510021117 66 78 0.0 1.0 0.00 0.00 0.00 55 1014.8
20260510020617 67 77 1.0 2.0 0.00 0.00 0.00 54 1015.0
20260510020138 67 93 0.0 1.0 0.00 0.00 0.00 54 1014.9
20260510015617 67 53 2.0 3.0 0.00 0.00 0.00 54 1014.9
20260510015117 67 105 0.0 1.0 0.00 0.00 0.00 53 1015.1
20260510014617 67 110 0.0 1.0 0.00 0.00 0.00 53 1015.1
20260510014117 67 71 1.0 2.0 0.00 0.00 0.00 53 1015.4
20260510013617 68 0.0 0.0 0.00 0.00 0.00 53 1015.4
20260510013117 68 102 1.0 1.0 0.00 0.00 0.00 51 1015.3
20260510012617 68 0.0 0.0 0.00 0.00 0.00 51 1015.4
20260510012116 68 0.0 0.0 0.00 0.00 0.00 51 1015.4
20260510011617 68 0.0 0.0 0.00 0.00 0.00 51 1015.4
20260510011117 69 124 1.0 2.0 0.00 0.00 0.00 50 1015.6
20260510010617 68 0.0 0.0 0.00 0.00 0.00 50 1015.7
20260510010117 68 51 2.0 2.0 0.00 0.00 0.00 49 1015.4
20260510005637 68 0.0 0.0 0.00 0.00 0.00 50 1015.5
20260510005117 68 88 1.0 2.0 0.00 0.00 0.00 50 1015.7
20260510004637 68 108 1.0 3.0 0.00 0.00 0.00 51 1015.8
20260510004117 68 86 0.0 1.0 0.00 0.00 0.00 50 1015.8
20260510003617 68 37 3.0 4.0 0.00 0.00 0.00 49 1015.9
20260510003117 68 89 0.0 1.0 0.00 0.00 0.00 51 1015.8
20260510002637 69 45 1.0 2.0 0.00 0.00 0.00 48 1015.9
20260510002118 69 49 2.0 2.0 0.00 0.00 0.00 48 1016.2
20260510001617 69 146 0.0 1.0 0.00 0.00 0.00 48 1016.1
20260510001137 68 65 2.0 3.0 0.00 0.00 0.00 49 1016.0
20260510000617 68 339 3.0 6.0 0.00 0.00 0.00 48 1016.2
20260510000117 69 0.0 0.0 0.00 0.00 0.00 49 1016.1
20260509235617 69 78 1.0 2.0 0.00 0.00 0.00 49 1016.2
20260509235117 68 40 1.0 2.0 0.00 0.00 0.00 51 1016.2
20260509234617 68 302 1.0 3.0 0.00 0.00 0.00 50 1016.4
20260509234118 69 343 1.0 1.0 0.00 0.00 0.00 49 1016.3
20260509233617 69 0.0 0.0 0.00 0.00 0.00 48 1016.4
20260509233118 68 86 1.0 2.0 0.00 0.00 0.00 50 1016.6
20260509232637 68 302 1.0 3.0 0.00 0.00 0.00 50 1016.5
20260509232117 69 25 2.0 3.0 0.00 0.00 0.00 48 1016.6
20260509231617 69 179 1.0 3.0 0.00 0.00 0.00 50 1016.7
20260509231117 68 356 2.0 3.0 0.00 0.00 0.00 51 1016.7
20260509230617 68 66 1.0 3.0 0.00 0.00 0.00 51 1016.8
20260509230116 67 69 2.0 3.0 0.00 0.00 0.00 52 1017.0
20260509225638 68 4 2.0 3.0 0.00 0.00 0.00 52 1017.1
20260509225118 68 49 2.0 4.0 0.00 0.00 0.00 51 1017.2
20260509224617 69 79 1.0 3.0 0.00 0.00 0.00 52 1017.5
20260509224117 67 86 0.0 1.0 0.00 0.00 0.00 54 1017.3
20260509223617 67 80 2.0 4.0 0.00 0.00 0.00 55 1017.2
20260509223117 68 49 2.0 4.0 0.00 0.00 0.00 54 1017.4
20260509222617 67 175 1.0 2.0 0.00 0.00 0.00 54 1017.5
20260509222117 67 318 1.0 6.0 0.00 0.00 0.00 57 1017.4
20260509221617 67 0.0 0.0 0.00 0.00 0.00 58 1017.6
20260509221117 66 82 1.0 2.0 0.00 0.00 0.00 58 1017.4
20260509220617 67 62 1.0 2.0 0.00 0.00 0.00 58 1017.5
20260509220117 67 47 2.0 4.0 0.00 0.00 0.00 57 1017.4
20260509215617 67 32 4.0 7.0 0.00 0.00 0.00 59 1017.5
20260509215117 67 57 2.0 4.0 0.00 0.00 0.00 58 1017.5
20260509214617 67 66 2.0 3.0 0.00 0.00 0.00 58 1017.6
20260509214117 67 32 2.0 6.0 0.00 0.00 0.00 58 1017.6
20260509213617 68 103 0.0 1.0 0.00 0.00 0.00 58 1017.7
20260509213116 67 86 1.0 3.0 0.00 0.00 0.00 60 1017.7
20260509212637 67 84 1.0 3.0 0.00 0.00 0.00 60 1017.8
20260509212117 66 0.0 0.0 0.00 0.00 0.00 60 1017.8
20260509211617 67 90 1.0 3.0 0.00 0.00 0.00 59 1017.9
20260509211117 66 152 1.0 2.0 0.00 0.00 0.00 60 1017.8
20260509210617 67 61 2.0 4.0 0.00 0.00 0.00 61 1017.8
20260509210117 66 87 2.0 4.0 0.00 0.00 0.00 61 1017.9
20260509205657 67 25 2.0 4.0 0.00 0.00 0.00 60 1018.1